Weather History for Du Bois, PA

Change the Weather History Date:

Thursday, September 20, 2012

  Actual Average Record
Temperature  
Mean Temperature 55 °F 58 °F  
Max Temperature 69 °F 68 °F 84 °F (1965)
Min Temperature 40 °F 48 °F 35 °F (1962)
Degree Days  
Heating Degree Days 10 7  
Month to date heating degree days 91 89  
Since 1 July heating degree days 113 151  
Cooling Degree Days 0 1  
Month to date cooling degree days 58 27  
Year to date cooling degree days 545 358  
Growing Degree Days 4 (Base 50)    
Moisture  
Dew Point 42 °F    
Average Humidity 64    
Maximum Humidity 92    
Minimum Humidity 35    
Precipitation  
Precipitation 0.00 in 0.12 in 1.46 in (1997)
Month to date precipitation 2.50 2.51  
Sea Level Pressure  
Sea Level Pressure 30.07 in    
Wind  
Wind Speed 6 mph (SE)    
Max Wind Speed 13 mph    
Max Gust Speed 18 mph    
Visibility 10 miles    
Events      
T = Trace of Precipitation, MM = Missing Value Source: NWS Daily Summary

Daily Weather History Graph

Daily Weather History Graph

Search for Another Location

Airport:

Trip Planner

Search our weather history database for the weather conditions in past years. The results will help you decide how hot, cold, wet, or windy it might be!

Date:

Astronomy

Sep. 20, 2012 Rise Set
Actual Time 7:01 AM EDT 7:15 PM EDT
Civil Twilight 6:33 AM EDT 7:42 PM EDT
Nautical Twilight 6:01 AM EDT 8:15 PM EDT
Astronomical Twilight 5:28 AM EDT 8:48 PM EDT
Moon 12:21 PM EDT (9/20) 10:12 PM EDT (9/20)
Length of Visible Light 13h 08m
Length of Day
12h 13m
Waxing Crescent, 26% of the Moon is Illuminated
Sep 20
Waxing Crescent
Sep 22
First Quarter
Sep 29
Full
Oct 8
Last Quarter
Oct 15
New

Hourly Weather History & Observations

Time (EDT) Temp. Windchill Dew Point Humidity Pressure Visibility Wind Dir Wind Speed Gust Speed Precip Events Conditions
12:56 AM 39.9 °F 36.7 °F 37.9 °F 93% 30.17 in 10.0 mi ESE 4.6 mph - N/A   Clear
1:56 AM 43.0 °F 39.5 °F 37.9 °F 82% 30.16 in 10.0 mi ESE 5.8 mph - N/A   Clear
2:56 AM 42.1 °F 39.2 °F 37.0 °F 82% 30.13 in 10.0 mi SE 4.6 mph - N/A   Clear
3:56 AM 42.1 °F 38.4 °F 36.0 °F 79% 30.13 in 10.0 mi SE 5.8 mph - N/A   Clear
4:56 AM 41.0 °F 39.0 °F 36.0 °F 82% 30.13 in 10.0 mi ESE 3.5 mph - N/A   Clear
5:56 AM 42.1 °F 38.4 °F 36.0 °F 79% 30.13 in 10.0 mi ESE 5.8 mph - N/A   Clear
6:56 AM 43.0 °F 38.8 °F 36.0 °F 76% 30.13 in 10.0 mi ESE 6.9 mph - N/A   Clear
7:56 AM 45.0 °F 41.8 °F 37.0 °F 74% 30.14 in 10.0 mi ESE 5.8 mph - N/A   Clear
9:56 AM 53.1 °F - 41.0 °F 64% 30.10 in 10.0 mi SSE 9.2 mph - N/A   Clear
10:56 AM 57.9 °F - 43.0 °F 58% 30.10 in 10.0 mi South 5.8 mph - N/A   Clear
11:56 AM 61.0 °F - 43.0 °F 52% 30.06 in 10.0 mi Variable 6.9 mph - N/A   Clear
12:56 PM 64.0 °F - 43.0 °F 46% 30.07 in 10.0 mi Variable 5.8 mph 18.4 mph N/A   Clear
1:56 PM 66.0 °F - 39.9 °F 38% 30.05 in 10.0 mi Variable 5.8 mph - N/A   Clear
2:56 PM 66.9 °F - 39.9 °F 37% 30.04 in 10.0 mi SW 5.8 mph - N/A   Clear
3:56 PM 68.0 °F - 39.9 °F 36% 30.02 in 10.0 mi South 9.2 mph - N/A   Clear
4:56 PM 69.1 °F - 42.1 °F 38% 30.00 in 10.0 mi South 6.9 mph - N/A   Clear
5:56 PM 68.0 °F - 41.0 °F 37% 29.99 in 10.0 mi South 6.9 mph - N/A   Clear
6:56 PM 66.0 °F - 42.1 °F 42% 30.00 in 10.0 mi SSE 3.5 mph - N/A   Mostly Cloudy
7:56 PM 62.1 °F - 48.0 °F 60% 30.01 in 10.0 mi SE 5.8 mph - N/A   Clear
8:56 PM 60.1 °F - 48.9 °F 67% 30.02 in 10.0 mi SE 8.1 mph - N/A   Clear
9:56 PM 60.1 °F - 50.0 °F 69% 30.01 in 10.0 mi SE 8.1 mph - N/A   Clear
10:56 PM 59.0 °F - 50.0 °F 72% 30.00 in 10.0 mi SSE 6.9 mph - N/A   Partly Cloudy
11:56 PM 59.0 °F - 50.0 °F 72% 30.01 in 10.0 mi SSE 5.8 mph - N/A   Overcast